Location: ?
(35.2180°N, 139.6392°E)
Time: 02:17:08
(UTC+00:00)

DELTA 2 R/B (1) - Pass Details

Date: 05 August 2024
Orbit: 789 x 800 km, 39.6° (Epoch: 09 September)

Event Time Altitude Azimuth Distance (km) Brightness Sun altitude
Rises 12:29:59 0° 290° (WNW) 3,300 7.6 -28.7°
Reaches altitude 10° 12:32:28 10° 288° (WNW) 2,369 6.7 -29.0°
Enters shadow 12:36:58 57° 269° (W) 937 4.0 -29.5°
